TimeEDT,TemperatureF,Dew PointF,Humidity,Sea Level PressureIn,VisibilityMPH,Wind Direction,Wind SpeedMPH,Gust SpeedMPH,PrecipitationIn,Events,Conditions,WindDirDegrees,DateUTC
12:14 AM,51.8,42.8,71,29.80,10.0,South,18.4,29.9,N/A,Rain,Rain,190,2012-10-09 04:14:00
12:35 AM,53.6,42.8,67,29.79,10.0,SSW,21.9,29.9,N/A,,Overcast,200,2012-10-09 04:35:00
1:14 AM,53.6,42.8,67,29.77,10.0,South,23.0,33.4,N/A,,Overcast,190,2012-10-09 05:14:00
1:35 AM,55.4,41.0,58,29.76,10.0,SSW,24.2,32.2,N/A,,Overcast,200,2012-10-09 05:35:00
1:55 AM,55.4,41.0,58,29.76,10.0,South,23.0,31.1,N/A,,Overcast,190,2012-10-09 05:55:00
2:14 AM,55.4,42.8,63,29.76,10.0,SSW,25.3,34.5,N/A,,Overcast,200,2012-10-09 06:14:00
2:54 AM,53.6,41.0,62,29.76,10.0,SSW,21.9,29.9,N/A,,Overcast,200,2012-10-09 06:54:00
3:15 AM,53.6,39.2,58,29.75,10.0,South,23.0,34.5,N/A,,Mostly Cloudy,190,2012-10-09 07:15:00
3:55 AM,53.6,41.0,62,29.74,10.0,SSW,16.1,25.3,N/A,,Mostly Cloudy,210,2012-10-09 07:55:00
4:14 AM,53.6,42.8,67,29.74,10.0,SSW,18.4,26.5,N/A,,Overcast,210,2012-10-09 08:14:00
4:35 AM,53.6,42.8,67,29.74,10.0,SSW,19.6,27.6,N/A,,Overcast,200,2012-10-09 08:35:00
4:55 AM,51.8,42.8,71,29.74,10.0,SSW,17.3,28.8,N/A,Rain,Rain,210,2012-10-09 08:55:00
5:14 AM,51.8,42.8,71,29.74,10.0,SSW,16.1,27.6,N/A,Rain,Rain,200,2012-10-09 09:14:00
5:35 AM,51.8,44.6,76,29.74,10.0,SSW,16.1,26.5,N/A,Rain,Light Rain,200,2012-10-09 09:35:00
5:55 AM,50.0,44.6,82,29.74,10.0,SSW,20.7,31.1,N/A,Rain,Rain,200,2012-10-09 09:55:00
6:14 AM,50.0,44.6,82,29.75,10.0,SSW,18.4,29.9,N/A,Rain,Rain,200,2012-10-09 10:14:00
6:35 AM,48.2,44.6,87,29.75,10.0,SSW,21.9,32.2,N/A,Rain,Light Rain,200,2012-10-09 10:35:00
6:55 AM,48.2,44.6,87,29.75,10.0,SSW,19.6,32.2,N/A,Rain,Light Rain,200,2012-10-09 10:55:00
7:15 AM,48.2,44.6,87,29.75,10.0,SSW,19.6,27.6,N/A,Rain,Light Rain,200,2012-10-09 11:15:00
7:35 AM,48.2,44.6,87,29.75,10.0,SSW,19.6,25.3,N/A,Rain,Light Rain,200,2012-10-09 11:35:00
7:54 AM,48.2,44.6,87,29.75,10.0,SSW,16.1,23.0,N/A,Rain,Light Rain,200,2012-10-09 11:54:00
8:15 AM,48.2,44.6,87,29.76,10.0,SSW,15.0,24.2,N/A,Rain,Light Rain,200,2012-10-09 12:15:00
8:35 AM,48.2,44.6,87,29.76,10.0,SSW,19.6,25.3,N/A,,Light Drizzle,210,2012-10-09 12:35:00
8:54 AM,48.2,44.6,87,29.77,10.0,SSW,18.4,26.5,N/A,,Overcast,200,2012-10-09 12:54:00
9:15 AM,48.2,44.6,87,29.77,10.0,SSW,17.3,25.3,N/A,,Mostly Cloudy,210,2012-10-09 13:15:00
9:35 AM,48.2,44.6,87,29.77,10.0,SW,12.7,21.9,N/A,,Mostly Cloudy,220,2012-10-09 13:35:00
9:54 AM,48.2,44.6,87,29.77,10.0,SW,12.7,21.9,N/A,,Mostly Cloudy,220,2012-10-09 13:54:00
10:15 AM,48.2,44.6,87,29.77,10.0,SSW,15.0,19.6,N/A,,Scattered Clouds,210,2012-10-09 14:15:00
10:34 AM,48.2,44.6,87,29.77,10.0,SW,15.0,21.9,N/A,,Scattered Clouds,220,2012-10-09 14:34:00
10:55 AM,48.2,44.6,87,29.77,10.0,SW,15.0,19.6,N/A,,Scattered Clouds,220,2012-10-09 14:55:00
11:14 AM,48.2,44.6,87,29.77,10.0,SSW,12.7,20.7,N/A,,Scattered Clouds,210,2012-10-09 15:14:00
11:35 AM,48.2,44.6,87,29.77,10.0,SSW,16.1,21.9,N/A,Rain,Light Rain,210,2012-10-09 15:35:00
11:55 AM,48.2,44.6,87,29.77,10.0,SSW,15.0,24.2,N/A,Rain,Light Rain,200,2012-10-09 15:55:00
12:14 PM,48.2,44.6,87,29.76,10.0,SSW,17.3,25.3,N/A,,Light Drizzle,200,2012-10-09 16:14:00
12:35 PM,48.2,44.6,87,29.75,10.0,SSW,13.8,19.6,N/A,Rain,Light Rain,200,2012-10-09 16:35:00
12:55 PM,48.2,44.6,87,29.75,10.0,South,12.7,-,N/A,,Scattered Clouds,190,2012-10-09 16:55:00
1:14 PM,48.2,44.6,87,29.75,10.0,South,11.5,20.7,N/A,,Scattered Clouds,190,2012-10-09 17:14:00
1:35 PM,48.2,44.6,87,29.73,10.0,South,12.7,20.7,N/A,,Overcast,180,2012-10-09 17:35:00
1:54 PM,48.2,46.4,93,29.73,10.0,South,11.5,-,N/A,Rain,Light Rain,180,2012-10-09 17:54:00
2:15 PM,48.2,44.6,87,29.72,10.0,South,13.8,-,N/A,Rain,Light Rain,180,2012-10-09 18:15:00
2:35 PM,48.2,46.4,93,29.71,10.0,South,11.5,-,N/A,,Light Drizzle,180,2012-10-09 18:35:00
2:54 PM,48.2,46.4,93,29.70,10.0,South,9.2,-,N/A,,Light Drizzle,190,2012-10-09 18:54:00
3:15 PM,48.2,46.4,93,29.68,10.0,SSW,8.1,-,N/A,,Drizzle,200,2012-10-09 19:15:00
3:35 PM,48.2,46.4,93,29.68,4.0,SSW,8.1,-,N/A,Rain,Rain,200,2012-10-09 19:35:00
3:54 PM,50.0,46.4,87,29.67,7.0,South,12.7,17.3,N/A,Rain,Heavy Rain,180,2012-10-09 19:54:00
4:15 PM,48.2,44.6,87,29.68,5.0,SW,13.8,23.0,N/A,Rain,Rain,220,2012-10-09 20:15:00
4:34 PM,46.4,44.6,93,29.67,5.0,SW,16.1,24.2,N/A,Rain,Light Rain,220,2012-10-09 20:34:00
4:55 PM,46.4,44.6,93,29.67,7.0,SSW,15.0,24.2,N/A,Rain,Light Rain,200,2012-10-09 20:55:00
5:14 PM,46.4,42.8,87,29.66,10.0,SSW,15.0,28.8,N/A,Rain,Rain,210,2012-10-09 21:14:00
5:35 PM,46.4,44.6,93,29.66,7.0,SSW,19.6,26.5,N/A,,Drizzle,210,2012-10-09 21:35:00
5:55 PM,46.4,44.6,93,29.65,10.0,SSW,16.1,26.5,N/A,Rain,Light Rain,210,2012-10-09 21:55:00
6:14 PM,46.4,44.6,93,29.65,7.0,SSW,13.8,24.2,N/A,Rain,Light Rain,210,2012-10-09 22:14:00
6:35 PM,46.4,44.6,93,29.65,5.0,SSW,12.7,19.6,N/A,Rain,Rain,210,2012-10-09 22:35:00
6:55 PM,46.4,44.6,93,29.65,5.0,SSW,12.7,19.6,N/A,Rain,Rain,210,2012-10-09 22:55:00
7:14 PM,46.4,42.8,87,29.67,10.0,WNW,20.7,31.1,N/A,Rain,Light Rain,290,2012-10-09 23:14:00
7:35 PM,44.6,39.2,81,29.68,10.0,West,13.8,-,N/A,,Drizzle,280,2012-10-09 23:35:00
7:54 PM,42.8,39.2,87,29.70,10.0,West,12.7,21.9,N/A,,Light Drizzle,280,2012-10-09 23:54:00
8:15 PM,42.8,37.4,81,29.72,10.0,West,12.7,-,N/A,,Drizzle,280,2012-10-10 00:15:00
8:35 PM,41.0,37.4,87,29.72,10.0,WNW,11.5,20.7,N/A,,Drizzle,290,2012-10-10 00:35:00
8:54 PM,39.2,37.4,93,29.71,10.0,WNW,6.9,-,N/A,,Drizzle,290,2012-10-10 00:54:00
9:15 PM,39.2,37.4,93,29.72,10.0,West,4.6,-,N/A,,Overcast,270,2012-10-10 01:15:00
9:34 PM,39.2,37.4,93,29.72,10.0,West,3.5,-,N/A,,Mostly Cloudy,270,2012-10-10 01:34:00
9:55 PM,39.2,37.4,93,29.72,10.0,West,5.8,-,N/A,,Scattered Clouds,260,2012-10-10 01:55:00
10:15 PM,39.2,35.6,87,29.71,10.0,WSW,4.6,-,N/A,,Clear,250,2012-10-10 02:15:00
10:34 PM,39.2,37.4,93,29.72,10.0,SW,3.5,-,N/A,,Clear,230,2012-10-10 02:34:00
10:55 PM,39.2,37.4,93,29.72,10.0,SW,5.8,-,N/A,,Clear,230,2012-10-10 02:55:00
11:14 PM,39.2,37.4,93,29.72,10.0,WSW,3.5,-,N/A,,Scattered Clouds,240,2012-10-10 03:14:00
11:35 PM,39.2,37.4,93,29.72,10.0,West,6.9,-,N/A,,Scattered Clouds,260,2012-10-10 03:35:00
11:55 PM,39.2,37.4,93,29.71,10.0,West,5.8,-,N/A,,Scattered Clouds,260,2012-10-10 03:55:00